When you browse on this site, cookies collect data to enhance your experience and personalize the content and advertising you see.
Visit our Privacy Policy to learn more. By continuing to use the site, you agree to this use of cookies and data.
  • In Austria
  • List of Countries
  • For 7 days
  • Water Temperature
  • Weather Map
  • News
  • Weather Widgets
  • user-avatar
    Login

    Hourly Weather Hluzdy

    Today, 25 January, Saturday

    Time Temperature Precipitation Wind Pressure Humidity
    00:00 -2°C° 0 mm 6 mps 749 mmHg 81%
    01:00 -2°C° 0 mm 6 mps 749 mmHg 81%
    02:00 -2°C° 0 mm 6 mps 749 mmHg 82%
    03:00 -1°C° 0 mm 5 mps 749 mmHg 85%
    04:00 -1°C° 0 mm 5 mps 748 mmHg 89%
    05:00 -1°C° 0 mm 5 mps 748 mmHg 93%
    06:00 -1°C° 0.3 mm 5 mps 748 mmHg 93%
    07:00 -1°C° 0.3 mm 5 mps 748 mmHg 93%
    08:00 -1°C° 0.3 mm 5 mps 749 mmHg 94%
    09:00 -1°C° 0 mm 5 mps 749 mmHg 92%
    10:00 -1°C° 0 mm 6 mps 749 mmHg 90%
    11:00 -1°C° 0 mm 7 mps 749 mmHg 89%
    12:00 -1°C° 0 mm 7 mps 749 mmHg 89%
    13:00 -1°C° 0 mm 6 mps 749 mmHg 89%
    14:00 -1°C° 0 mm 6 mps 749 mmHg 90%
    15:00 -1°C° 0 mm 6 mps 749 mmHg 90%
    16:00 -1°C° 0 mm 6 mps 749 mmHg 90%
    17:00 -1°C° 0 mm 6 mps 749 mmHg 90%
    18:00 -1°C° 0 mm 6 mps 749 mmHg 90%
    19:00 -1°C° 0 mm 6 mps 750 mmHg 91%
    20:00 -1°C° 0 mm 6 mps 750 mmHg 91%
    21:00 -1°C° 0 mm 5 mps 750 mmHg 91%
    22:00 -1°C° 0 mm 5 mps 751 mmHg 91%
    23:00 -1°C° 0 mm 5 mps 751 mmHg 90%

    Tomorrow, 26 January, Sunday

    Time Temperature Precipitation Wind Pressure Humidity
    00:00 -1°C° 0 mm 5 mps 752 mmHg 91%
    01:00 -2°C° 0 mm 5 mps 752 mmHg 91%
    02:00 -2°C° 0 mm 4 mps 752 mmHg 91%
    03:00 -2°C° 0 mm 4 mps 753 mmHg 92%
    04:00 -2°C° 0 mm 3 mps 753 mmHg 93%
    05:00 -2°C° 0 mm 3 mps 753 mmHg 94%
    06:00 -2°C° 0 mm 3 mps 754 mmHg 94%
    07:00 -2°C° 0 mm 3 mps 754 mmHg 95%
    08:00 -2°C° 0 mm 3 mps 755 mmHg 95%
    09:00 -1°C° 0 mm 3 mps 755 mmHg 92%
    10:00 -1°C° 0 mm 3 mps 756 mmHg 89%
    11:00 0°C° 0 mm 3 mps 756 mmHg 86%
    12:00 +1°C° 0 mm 3 mps 756 mmHg 86%
    13:00 +1°C° 0 mm 3 mps 756 mmHg 85%
    14:00 +1°C° 0 mm 3 mps 756 mmHg 85%
    15:00 +1°C° 0 mm 3 mps 756 mmHg 87%
    16:00 0°C° 0 mm 3 mps 755 mmHg 90%
    17:00 -1°C° 0 mm 3 mps 755 mmHg 93%
    18:00 -1°C° 0 mm 3 mps 755 mmHg 93%
    19:00 -1°C° 0 mm 3 mps 755 mmHg 93%
    20:00 -1°C° 0 mm 3 mps 755 mmHg 93%
    21:00 -1°C° 0 mm 3 mps 755 mmHg 93%
    22:00 -1°C° 0 mm 3 mps 755 mmHg 93%
    23:00 -1°C° 0 mm 3 mps 755 mmHg 93%

    Day after tomorrow, 27 January, Monday

    Time Temperature Precipitation Wind Pressure Humidity
    00:00 -1°C° 0 mm 3 mps 755 mmHg 93%
    01:00 -1°C° 0 mm 3 mps 755 mmHg 94%
    02:00 -1°C° 0 mm 3 mps 755 mmHg 94%
    03:00 -1°C° 0 mm 3 mps 755 mmHg 93%
    04:00 -1°C° 0 mm 2 mps 755 mmHg 93%
    05:00 +1°C° 0 mm 2 mps 754 mmHg 92%
    06:00 +1°C° 0 mm 2 mps 754 mmHg 92%
    07:00 +1°C° 0 mm 2 mps 754 mmHg 92%
    08:00 -1°C° 0 mm 2 mps 754 mmHg 92%
    09:00 +1°C° 0 mm 2 mps 754 mmHg 89%
    10:00 +2°C° 0 mm 2 mps 754 mmHg 86%
    11:00 +1°C° 0 mm 3 mps 754 mmHg 83%
    12:00 +2°C° 0 mm 3 mps 754 mmHg 81%
    13:00 +2°C° 0 mm 3 mps 753 mmHg 79%
    14:00 +2°C° 0 mm 3 mps 753 mmHg 77%
    15:00 +2°C° 0 mm 3 mps 753 mmHg 81%
    16:00 +1°C° 0 mm 3 mps 752 mmHg 84%
    17:00 +1°C° 0 mm 3 mps 752 mmHg 87%
    18:00 +1°C° 0.1 mm 3 mps 752 mmHg 87%
    19:00 +1°C° 0.1 mm 3 mps 752 mmHg 87%
    20:00 +1°C° 0.1 mm 3 mps 752 mmHg 87%
    21:00 +1°C° 0.1 mm 3 mps 751 mmHg 87%
    22:00 +1°C° 0.1 mm 3 mps 751 mmHg 86%
    23:00 +1°C° 0.1 mm 3 mps 751 mmHg 86%

    28 January, Tuesday

    Time Temperature Precipitation Wind Pressure Humidity
    00:00 +1°C° 0 mm 3 mps 751 mmHg 86%
    01:00 +1°C° 0 mm 3 mps 750 mmHg 87%
    02:00 +1°C° 0 mm 2 mps 750 mmHg 88%
    03:00 0°C° 0.2 mm 3 mps 750 mmHg 89%
    04:00 0°C° 0.2 mm 3 mps 750 mmHg 91%
    05:00 0°C° 0.2 mm 3 mps 749 mmHg 93%
    06:00 0°C° 0.1 mm 3 mps 749 mmHg 93%
    07:00 0°C° 0.1 mm 3 mps 749 mmHg 93%
    08:00 +1°C° 0.1 mm 2 mps 749 mmHg 94%
    09:00 +1°C° 0 mm 3 mps 749 mmHg 92%
    10:00 +1°C° 0 mm 3 mps 749 mmHg 90%
    11:00 +2°C° 0 mm 3 mps 749 mmHg 88%
    12:00 +2°C° 0 mm 3 mps 748 mmHg 87%
    13:00 +3°C° 0 mm 3 mps 748 mmHg 85%
    14:00 +4°C° 0 mm 2 mps 747 mmHg 83%
    15:00 +2°C° 0 mm 3 mps 747 mmHg 85%
    16:00 +2°C° 0 mm 3 mps 747 mmHg 88%
    17:00 +1°C° 0 mm 3 mps 747 mmHg 91%
    18:00 +1°C° 0 mm 3 mps 747 mmHg 91%
    19:00 0°C° 0 mm 3 mps 747 mmHg 92%
    20:00 0°C° 0 mm 3 mps 747 mmHg 92%
    21:00 0°C° 0 mm 3 mps 747 mmHg 93%
    22:00 0°C° 0 mm 3 mps 746 mmHg 93%
    23:00 0°C° 0 mm 3 mps 746 mmHg 94%

    29 January, Wednesday

    Time Temperature Precipitation Wind Pressure Humidity
    00:00 0°C° 0 mm 3 mps 746 mmHg 94%
    01:00 -1°C° 0 mm 4 mps 745 mmHg 94%
    02:00 -1°C° 0 mm 4 mps 745 mmHg 93%
    03:00 0°C° 0 mm 4 mps 744 mmHg 94%
    04:00 0°C° 0 mm 5 mps 744 mmHg 95%
    05:00 0°C° 0 mm 5 mps 743 mmHg 95%
    06:00 +1°C° 0 mm 5 mps 742 mmHg 95%
    07:00 +1°C° 0 mm 5 mps 742 mmHg 95%
    08:00 +2°C° 0 mm 6 mps 741 mmHg 95%
    09:00 +2°C° 0.2 mm 6 mps 741 mmHg 95%
    10:00 +2°C° 0.2 mm 6 mps 741 mmHg 94%
    11:00 +2°C° 0.2 mm 6 mps 740 mmHg 94%
    12:00 +2°C° 0.9 mm 5 mps 740 mmHg 95%
    13:00 +1°C° 0.9 mm 5 mps 740 mmHg 96%
    14:00 +1°C° 0.9 mm 5 mps 739 mmHg 97%
    15:00 +1°C° 0.1 mm 5 mps 740 mmHg 94%
    16:00 +1°C° 0.1 mm 5 mps 740 mmHg 91%
    17:00 +1°C° 0.1 mm 4 mps 740 mmHg 88%
    18:00 0°C° 0 mm 4 mps 741 mmHg 87%
    19:00 -1°C° 0 mm 4 mps 741 mmHg 86%
    20:00 -1°C° 0 mm 4 mps 741 mmHg 85%
    21:00 -2°C° 0 mm 4 mps 742 mmHg 84%
    22:00 -2°C° 0 mm 4 mps 742 mmHg 82%
    23:00 -1°C° 0 mm 3 mps 742 mmHg 81%

    30 January, Thursday

    Time Temperature Precipitation Wind Pressure Humidity
    00:00 -2°C° 0 mm 4 mps 742 mmHg 84%
    01:00 -2°C° 0 mm 4 mps 742 mmHg 87%
    02:00 -1°C° 0 mm 5 mps 742 mmHg 90%
    03:00 -1°C° 0.1 mm 5 mps 741 mmHg 91%
    04:00 -1°C° 0.1 mm 5 mps 741 mmHg 92%
    05:00 -2°C° 0.1 mm 6 mps 740 mmHg 93%
    06:00 -2°C° 0.1 mm 6 mps 740 mmHg 92%
    07:00 -2°C° 0.1 mm 6 mps 740 mmHg 90%
    08:00 -3°C° 0.1 mm 6 mps 740 mmHg 89%
    09:00 -2°C° 0 mm 6 mps 740 mmHg 84%
    10:00 -2°C° 0 mm 7 mps 740 mmHg 79%
    11:00 -1°C° 0 mm 7 mps 741 mmHg 74%
    12:00 -1°C° 0 mm 7 mps 741 mmHg 73%
    13:00 -1°C° 0 mm 6 mps 741 mmHg 72%
    14:00 -1°C° 0 mm 6 mps 741 mmHg 71%
    15:00 0°C° 0 mm 5 mps 741 mmHg 74%
    16:00 -1°C° 0 mm 5 mps 741 mmHg 77%
    17:00 -1°C° 0 mm 4 mps 742 mmHg 80%
    18:00 -1°C° 0 mm 4 mps 742 mmHg 83%
    19:00 -1°C° 0 mm 5 mps 742 mmHg 86%
    20:00 -2°C° 0 mm 6 mps 742 mmHg 89%
    21:00 -2°C° 0 mm 5 mps 742 mmHg 89%
    22:00 -2°C° 0 mm 4 mps 742 mmHg 90%
    23:00 -3°C° 0 mm 4 mps 742 mmHg 90%
    Show more